TIANMU-1 16

Last updated on Fri Sep 11 2026 00:02:39 GMT+0000 (Coordinated Universal Time)

1 58701U 24004B 26253.59640830 .00003878 00000+0 14678-3 0 9998 2 58701 97.4618 79.0075 0007172 58.6609 301.5332 15.27516447148818
UTC large
Height (km)
Speed (km/s)
/
Latitude / Longitude
Inclination (degrees)
Orbital Period (minutes)
Azimuth
Elevation
Range (km)
Doppler Factor

Next 0 passes for location: London (51.5072 / 0.1276)

No passes found over London.
TIANMU-1 16